Time,TemperatureF,DewpointF,PressureIn,WindDirection,WindDirectionDegrees,WindSpeedMPH,WindSpeedGustMPH,Humidity,HourlyPrecipIn,Conditions,Clouds,dailyrainin,SolarRadiationWatts/m^2,SoftwareType,DateUTC
2013-01-24 00:02:00,6.6,-1.4,30.62,West,264,5.0,5.0,69,0.00,CLR,,0.00,0.0,WeatherDisplay:10.37,2013-01-24 06:02:00,
2013-01-24 00:07:00,6.5,-1.5,30.62,North,360,2.6,11.5,69,0.00,CLR,,0.00,0.0,WeatherDisplay:10.37,2013-01-24 06:07:00,
2013-01-24 00:12:00,6.5,-1.5,30.63,NNW,346,5.2,8.1,69,0.00,CLR,,0.00,0.0,WeatherDisplay:10.37,2013-01-24 06:12:00,
2013-01-24 00:17:00,6.5,-1.2,30.63,NW,311,1.3,5.8,70,0.00,CLR,,0.00,0.0,WeatherDisplay:10.37,2013-01-24 06:17:00,
2013-01-24 00:23:00,6.4,-1.3,30.64,NW,306,2.3,8.0,70,0.00,CLR,,0.00,0.0,WeatherDisplay:10.37,2013-01-24 06:23:00,
2013-01-24 00:28:00,6.4,-1.9,30.63,North,350,1.1,4.6,68,0.00,CLR,,0.00,0.0,WeatherDisplay:10.37,2013-01-24 06:28:00,
2013-01-24 00:33:00,6.4,-2.2,30.63,NNW,332,0.4,8.1,67,0.00,CLR,,0.00,0.0,WeatherDisplay:10.37,2013-01-24 06:33:00,
2013-01-24 00:38:00,6.4,-2.2,30.63,North,349,4.4,9.2,67,0.00,CLR,,0.00,0.0,WeatherDisplay:10.37,2013-01-24 06:38:00,
2013-01-24 00:44:00,6.4,-2.5,30.64,NNW,340,4.8,9.2,66,0.00,CLR,,0.00,0.0,WeatherDisplay:10.37,2013-01-24 06:44:00,
2013-01-24 00:49:00,6.4,-2.9,30.63,NNW,336,2.0,2.3,65,0.00,CLR,,0.00,0.0,WeatherDisplay:10.37,2013-01-24 06:49:00,
2013-01-24 00:54:00,6.3,-3.0,30.64,WNW,301,4.1,9.2,65,0.00,CLR,,0.00,0.0,WeatherDisplay:10.37,2013-01-24 06:54:00,
2013-01-24 00:59:00,6.3,-3.0,30.63,North,5,1.3,3.5,65,0.00,CLR,,0.00,0.0,WeatherDisplay:10.37,2013-01-24 06:59:00,
2013-01-24 01:05:00,6.2,-3.1,30.64,North,9,1.0,5.0,65,0.00,CLR,,0.00,0.0,WeatherDisplay:10.37,2013-01-24 07:05:00,
2013-01-24 01:10:00,6.1,-3.2,30.64,NW,317,4.5,6.9,65,0.00,CLR,,0.00,0.0,WeatherDisplay:10.37,2013-01-24 07:10:00,
2013-01-24 01:15:00,6.0,-3.6,30.63,WNW,302,2.2,10.4,64,0.00,CLR,,0.00,0.0,WeatherDisplay:10.37,2013-01-24 07:15:00,
2013-01-24 01:21:00,6.0,-3.3,30.63,NE,34,0.4,4.6,65,0.00,CLR,,0.00,0.0,WeatherDisplay:10.37,2013-01-24 07:21:00,
2013-01-24 01:26:00,5.9,-3.3,30.64,NNW,346,0.0,12.0,65,0.00,CLR,CLR,0.00,0.0,WeatherDisplay:10.37,2013-01-24 07:26:00,
2013-01-24 01:31:00,5.9,-3.3,30.64,North,360,4.4,8.1,65,0.00,CLR,,0.00,0.0,WeatherDisplay:10.37,2013-01-24 07:31:00,
2013-01-24 01:36:00,5.8,-3.4,30.65,NNW,334,2.0,9.0,65,0.00,CLR,CLR,0.00,0.0,WeatherDisplay:10.37,2013-01-24 07:36:00,
2013-01-24 01:41:00,5.7,-3.9,30.65,NNW,333,1.5,3.5,64,0.00,CLR,,0.00,0.0,WeatherDisplay:10.37,2013-01-24 07:41:00,
2013-01-24 01:46:00,5.7,-3.5,30.65,NNW,348,2.6,3.5,65,0.00,CLR,,0.00,0.0,WeatherDisplay:10.37,2013-01-24 07:46:00,
2013-01-24 01:51:00,5.6,-3.6,30.66,NNW,340,0.3,3.5,65,0.00,CLR,,0.00,0.0,WeatherDisplay:10.37,2013-01-24 07:51:00,
2013-01-24 01:57:00,5.6,-3.6,30.66,NNW,346,0.1,3.5,65,0.00,CLR,,0.00,0.0,WeatherDisplay:10.37,2013-01-24 07:57:00,
2013-01-24 02:02:00,5.5,-3.7,30.66,NW,311,0.5,4.6,65,0.00,CLR,,0.00,0.0,WeatherDisplay:10.37,2013-01-24 08:02:00,
2013-01-24 02:07:00,5.5,-3.7,30.66,NNE,20,0.8,3.5,65,0.00,CLR,,0.00,0.0,WeatherDisplay:10.37,2013-01-24 08:07:00,
2013-01-24 02:12:00,5.5,-3.4,30.66,WNW,298,5.6,9.0,66,0.00,CLR,,0.00,0.0,WeatherDisplay:10.37,2013-01-24 08:12:00,
2013-01-24 02:18:00,5.4,-3.5,30.66,North,355,0.8,5.0,66,0.00,CLR,,0.00,0.0,WeatherDisplay:10.37,2013-01-24 08:18:00,
2013-01-24 02:23:00,5.4,-3.5,30.66,North,355,0.6,3.5,66,0.00,CLR,,0.00,0.0,WeatherDisplay:10.37,2013-01-24 08:23:00,
2013-01-24 02:28:00,5.3,-3.6,30.66,North,355,0.2,2.3,66,0.00,CLR,,0.00,0.0,WeatherDisplay:10.37,2013-01-24 08:28:00,
2013-01-24 02:33:00,5.3,-3.6,30.67,NW,311,1.1,3.5,66,0.00,CLR,,0.00,0.0,WeatherDisplay:10.37,2013-01-24 08:33:00,
2013-01-24 02:39:00,5.3,-3.3,30.67,NW,314,0.1,0.0,67,0.00,CLR,,0.00,0.0,WeatherDisplay:10.37,2013-01-24 08:39:00,
2013-01-24 02:44:00,5.3,-3.3,30.66,NNE,23,0.9,3.0,67,0.00,CLR,,0.00,0.0,WeatherDisplay:10.37,2013-01-24 08:44:00,
2013-01-24 02:49:00,5.2,-3.4,30.67,NNE,12,2.1,5.8,67,0.00,CLR,,0.00,0.0,WeatherDisplay:10.37,2013-01-24 08:49:00,
2013-01-24 02:54:00,5.2,-3.4,30.67,North,355,0.0,1.1,67,0.00,CLR,,0.00,0.0,WeatherDisplay:10.37,2013-01-24 08:54:00,
2013-01-24 03:00:00,5.2,-3.1,30.67,NNE,32,0.0,3.5,68,0.00,CLR,,0.00,0.0,WeatherDisplay:10.37,2013-01-24 09:00:00,
2013-01-24 03:05:00,5.2,-3.1,30.67,NNW,331,0.0,0.0,68,0.00,SCT,,0.00,0.0,WeatherDisplay:10.37,2013-01-24 09:05:00,
2013-01-24 03:10:00,5.2,-3.1,30.67,NNW,330,2.9,4.6,68,0.00,SCT,,0.00,0.0,WeatherDisplay:10.37,2013-01-24 09:10:00,
2013-01-24 03:15:00,5.1,-3.2,30.67,NW,326,0.3,2.0,68,0.00,SCT,,0.00,0.0,WeatherDisplay:10.37,2013-01-24 09:15:00,
2013-01-24 03:21:00,5.1,-3.2,30.67,WNW,298,0.0,0.0,68,0.00,SCT,,0.00,0.0,WeatherDisplay:10.37,2013-01-24 09:21:00,
2013-01-24 03:26:00,5.1,-3.2,30.67,WNW,303,0.0,3.0,68,0.00,SCT,SCT,0.00,0.0,WeatherDisplay:10.37,2013-01-24 09:26:00,
2013-01-24 03:31:00,5.0,-3.0,30.67,NNW,346,1.1,3.5,69,0.00,SCT,,0.00,0.0,WeatherDisplay:10.37,2013-01-24 09:31:00,
2013-01-24 03:36:00,5.0,-3.0,30.67,NE,38,0.1,1.1,69,0.00,SCT,,0.00,0.0,WeatherDisplay:10.37,2013-01-24 09:36:00,
2013-01-24 03:41:00,5.0,-3.0,30.67,NW,308,0.2,1.0,69,0.00,SCT,,0.00,0.0,WeatherDisplay:10.37,2013-01-24 09:41:00,
2013-01-24 03:46:00,5.0,-3.0,30.68,NW,308,0.0,0.0,69,0.00,SCT,,0.00,0.0,WeatherDisplay:10.37,2013-01-24 09:46:00,
2013-01-24 03:52:00,5.1,-2.6,30.69,North,349,0.0,0.0,70,0.00,SCT,,0.00,0.0,WeatherDisplay:10.37,2013-01-24 09:52:00,
2013-01-24 03:57:00,5.1,-2.6,30.68,NW,314,0.6,2.3,70,0.00,SCT,,0.00,0.0,WeatherDisplay:10.37,2013-01-24 09:57:00,
2013-01-24 04:02:00,5.1,-2.6,30.68,NW,314,0.0,1.1,70,0.00,SCT,,0.00,0.0,WeatherDisplay:10.37,2013-01-24 10:02:00,
2013-01-24 04:08:00,5.1,-2.6,30.68,North,360,0.4,2.3,70,0.00,SCT,,0.00,0.0,WeatherDisplay:10.37,2013-01-24 10:08:00,
2013-01-24 04:13:00,5.1,-2.6,30.69,NNW,346,1.9,3.5,70,0.00,SCT,,0.00,0.0,WeatherDisplay:10.37,2013-01-24 10:13:00,
2013-01-24 04:18:00,5.2,-2.8,30.69,NE,40,0.7,3.5,69,0.00,SCT,,0.00,0.0,WeatherDisplay:10.37,2013-01-24 10:18:00,
2013-01-24 04:23:00,5.3,-2.4,30.68,NNW,331,1.0,4.0,70,0.00,SCT,,0.00,0.0,WeatherDisplay:10.37,2013-01-24 10:23:00,
2013-01-24 04:29:00,5.3,-2.4,30.68,NNE,13,1.1,6.9,70,0.00,SCT,,0.00,0.0,WeatherDisplay:10.37,2013-01-24 10:29:00,
2013-01-24 04:34:00,5.3,-2.7,30.69,NNW,333,2.1,4.6,69,0.00,SCT,,0.00,0.0,WeatherDisplay:10.37,2013-01-24 10:34:00,
2013-01-24 04:39:00,5.3,-3.6,30.69,North,5,0.7,3.5,66,0.00,SCT,,0.00,0.0,WeatherDisplay:10.37,2013-01-24 10:39:00,
2013-01-24 04:44:00,5.3,-3.6,30.69,NNE,19,0.0,3.5,66,0.00,SCT,,0.00,0.0,WeatherDisplay:10.37,2013-01-24 10:44:00,
2013-01-24 04:50:00,5.4,-3.8,30.68,NNW,334,1.3,1.3,65,0.00,SCT,,0.00,0.0,WeatherDisplay:10.37,2013-01-24 10:50:00,
2013-01-24 04:55:00,5.4,-3.8,30.68,NNE,18,0.0,0.0,65,0.00,SCT,,0.00,0.0,WeatherDisplay:10.37,2013-01-24 10:55:00,
2013-01-24 05:00:00,5.4,-3.8,30.67,ENE,63,3.2,5.0,65,0.00,SCT,,0.00,0.0,WeatherDisplay:10.37,2013-01-24 11:00:00,
2013-01-24 05:05:00,5.4,-3.8,30.67,NNE,17,0.0,2.3,65,0.00,OVC,,0.00,0.0,WeatherDisplay:10.37,2013-01-24 11:05:00,
2013-01-24 05:11:00,5.5,-3.4,30.67,NE,40,1.3,1.3,66,0.00,OVC,,0.00,0.0,WeatherDisplay:10.37,2013-01-24 11:11:00,
2013-01-24 05:16:00,5.5,-3.7,30.67,NNE,26,1.0,5.0,65,0.00,OVC,OVC,0.00,0.0,WeatherDisplay:10.37,2013-01-24 11:16:00,
2013-01-24 05:21:00,5.5,-3.4,30.67,NNW,341,0.9,2.3,66,0.00,OVC,,0.00,0.0,WeatherDisplay:10.37,2013-01-24 11:21:00,
2013-01-24 05:26:00,5.4,-3.8,30.66,North,5,0.7,3.5,65,0.00,OVC,,0.00,0.0,WeatherDisplay:10.37,2013-01-24 11:26:00,
2013-01-24 05:31:00,5.3,-3.9,30.67,NNE,13,1.0,3.5,65,0.00,OVC,,0.00,0.0,WeatherDisplay:10.37,2013-01-24 11:31:00,
2013-01-24 05:36:00,5.3,-3.9,30.66,NE,34,0.5,4.6,65,0.00,OVC,,0.00,0.0,WeatherDisplay:10.37,2013-01-24 11:36:00,
2013-01-24 05:42:00,5.3,-4.2,30.67,NE,49,2.9,4.6,64,0.00,OVC,,0.00,0.0,WeatherDisplay:10.37,2013-01-24 11:42:00,
2013-01-24 05:47:00,5.1,-4.4,30.67,NNE,23,0.6,3.0,64,0.00,OVC,,0.00,0.0,WeatherDisplay:10.37,2013-01-24 11:47:00,
2013-01-24 05:52:00,5.0,-4.9,30.67,NE,34,0.0,1.1,63,0.00,OVC,,0.00,0.0,WeatherDisplay:10.37,2013-01-24 11:52:00,
2013-01-24 05:57:00,4.9,-4.6,30.67,NE,34,0.0,0.0,64,0.00,OVC,,0.00,0.0,WeatherDisplay:10.37,2013-01-24 11:57:00,
2013-01-24 06:03:00,4.8,-4.7,30.68,North,350,0.4,2.3,64,0.00,BKN,,0.00,0.0,WeatherDisplay:10.37,2013-01-24 12:03:00,
2013-01-24 06:08:00,4.8,-4.4,30.69,NE,36,1.9,4.6,65,0.00,BKN,,0.00,0.0,WeatherDisplay:10.37,2013-01-24 12:08:00,
2013-01-24 06:13:00,4.8,-4.7,30.69,NNE,31,0.5,1.0,64,0.00,BKN,,0.00,0.0,WeatherDisplay:10.37,2013-01-24 12:13:00,
2013-01-24 06:18:00,4.8,-4.4,30.69,NE,36,1.7,3.5,65,0.00,BKN,,0.00,0.0,WeatherDisplay:10.37,2013-01-24 12:18:00,
2013-01-24 06:24:00,4.7,-4.8,30.68,ENE,63,2.3,4.0,64,0.00,BKN,,0.00,0.0,WeatherDisplay:10.37,2013-01-24 12:24:00,
2013-01-24 06:29:00,4.7,-4.8,30.68,ENE,68,0.7,5.8,64,0.00,BKN,,0.00,0.0,WeatherDisplay:10.37,2013-01-24 12:29:00,
2013-01-24 06:34:00,4.7,-4.8,30.68,NNE,28,0.0,0.0,64,0.00,BKN,,0.00,0.0,WeatherDisplay:10.37,2013-01-24 12:34:00,
2013-01-24 06:40:00,4.7,-4.8,30.69,NE,48,0.3,3.5,64,0.00,BKN,,0.00,0.0,WeatherDisplay:10.37,2013-01-24 12:40:00,
2013-01-24 06:45:00,4.7,-4.5,30.68,NE,43,0.5,2.3,65,0.00,BKN,,0.00,0.0,WeatherDisplay:10.37,2013-01-24 12:45:00,
2013-01-24 06:50:00,4.7,-4.5,30.67,NE,51,0.9,3.5,65,0.00,BKN,,0.00,0.0,WeatherDisplay:10.37,2013-01-24 12:50:00,
2013-01-24 06:55:00,4.6,-4.3,30.68,NNE,26,0.8,4.0,66,0.00,BKN,,0.00,0.0,WeatherDisplay:10.37,2013-01-24 12:55:00,
2013-01-24 07:01:00,4.6,-4.3,30.68,NE,34,0.0,2.0,66,0.00,OVC,,0.00,0.0,WeatherDisplay:10.37,2013-01-24 13:01:00,
2013-01-24 07:06:00,4.6,-4.3,30.68,NNE,17,1.0,4.0,66,0.00,OVC,OVC,0.00,0.0,WeatherDisplay:10.37,2013-01-24 13:06:00,
2013-01-24 07:11:00,4.6,-4.3,30.69,NNE,24,0.3,2.3,66,0.00,OVC,,0.00,0.0,WeatherDisplay:10.37,2013-01-24 13:11:00,
2013-01-24 07:16:00,4.6,-4.3,30.68,North,5,1.4,4.6,66,0.00,OVC,,0.00,0.0,WeatherDisplay:10.37,2013-01-24 13:16:00,
2013-01-24 07:21:00,4.6,-4.3,30.69,NE,46,1.3,3.0,66,0.00,OVC,,0.00,0.0,WeatherDisplay:10.37,2013-01-24 13:21:00,
2013-01-24 07:26:00,4.6,-4.3,30.69,NE,56,1.2,3.5,66,0.00,OVC,,0.00,0.0,WeatherDisplay:10.37,2013-01-24 13:26:00,
2013-01-24 07:32:00,4.6,-4.6,30.69,NE,51,0.8,3.0,65,0.00,OVC,,0.00,0.0,WeatherDisplay:10.37,2013-01-24 13:32:00,
2013-01-24 07:37:00,4.6,-4.6,30.69,NNE,24,0.1,1.1,65,0.00,OVC,,0.00,0.0,WeatherDisplay:10.37,2013-01-24 13:37:00,
2013-01-24 07:42:00,4.6,-4.6,30.70,NE,45,0.6,3.5,65,0.00,OVC,,0.00,7.0,WeatherDisplay:10.37,2013-01-24 13:42:00,
2013-01-24 07:47:00,4.7,-4.2,30.70,NNE,19,0.0,0.0,66,0.00,OVC,,0.00,12.6,WeatherDisplay:10.37,2013-01-24 13:47:00,
2013-01-24 07:53:00,4.9,-4.0,30.70,NE,51,0.7,3.5,66,0.00,OVC,,0.00,16.8,WeatherDisplay:10.37,2013-01-24 13:53:00,
2013-01-24 07:58:00,4.9,-4.3,30.70,NE,43,0.7,3.0,65,0.00,OVC,,0.00,22.4,WeatherDisplay:10.37,2013-01-24 13:58:00,
2013-01-24 08:03:00,4.9,-4.0,30.70,NE,48,0.0,0.0,66,0.00,OVC,,0.00,29.4,WeatherDisplay:10.37,2013-01-24 14:03:00,
2013-01-24 08:08:00,5.0,-3.9,30.70,NE,49,1.1,2.0,66,0.00,OVC,,0.00,36.4,WeatherDisplay:10.37,2013-01-24 14:08:00,
2013-01-24 08:14:00,5.0,-4.2,30.70,NE,49,0.2,2.3,65,0.00,OVC,,0.00,49.0,WeatherDisplay:10.37,2013-01-24 14:14:00,
2013-01-24 08:19:00,5.1,-3.8,30.70,West,270,0.6,2.3,66,0.00,OVC,,0.00,64.4,WeatherDisplay:10.37,2013-01-24 14:19:00,
2013-01-24 08:24:00,5.3,-3.6,30.70,NE,51,0.5,2.3,66,0.00,OVC,,0.00,75.6,WeatherDisplay:10.37,2013-01-24 14:24:00,
2013-01-24 08:29:00,5.4,-3.5,30.70,NE,36,1.1,3.5,66,0.00,OVC,,0.00,81.2,WeatherDisplay:10.37,2013-01-24 14:29:00,
2013-01-24 08:35:00,5.6,-3.3,30.70,NE,56,2.2,5.8,66,0.00,OVC,,0.00,81.2,WeatherDisplay:10.37,2013-01-24 14:35:00,
2013-01-24 08:40:00,5.6,-3.6,30.70,NE,40,0.0,0.0,65,0.00,OVC,,0.00,86.8,WeatherDisplay:10.37,2013-01-24 14:40:00,
2013-01-24 08:45:00,5.8,-3.1,30.70,NNE,28,0.6,3.5,66,0.00,OVC,,0.00,96.6,WeatherDisplay:10.37,2013-01-24 14:45:00,
2013-01-24 08:50:00,6.0,-3.3,30.71,NNE,27,0.9,3.5,65,0.00,OVC,,0.00,103.6,WeatherDisplay:10.37,2013-01-24 14:50:00,
2013-01-24 08:56:00,6.1,-3.2,30.70,NE,41,3.0,8.0,65,0.00,OVC,OVC,0.00,120.4,WeatherDisplay:10.37,2013-01-24 14:56:00,
2013-01-24 09:01:00,6.3,-3.0,30.70,NNE,31,0.0,0.0,65,0.00,OVC,,0.00,142.8,WeatherDisplay:10.37,2013-01-24 15:01:00,
2013-01-24 09:06:00,6.6,-2.7,30.71,NE,41,0.0,6.0,65,0.00,OVC,OVC,0.00,145.6,WeatherDisplay:10.37,2013-01-24 15:06:00,
2013-01-24 09:11:00,6.9,-2.7,30.70,ENE,58,0.3,1.1,64,0.00,OVC,,0.00,130.2,WeatherDisplay:10.37,2013-01-24 15:11:00,
2013-01-24 09:16:00,7.0,-3.0,30.70,NE,51,0.3,2.3,63,0.00,OVC,,0.00,130.2,WeatherDisplay:10.37,2013-01-24 15:16:00,
2013-01-24 09:21:00,7.2,-2.4,30.70,ENE,78,0.2,1.0,64,0.00,OVC,,0.00,135.8,WeatherDisplay:10.37,2013-01-24 15:21:00,
2013-01-24 09:27:00,7.4,-2.2,30.70,NNE,17,2.7,3.5,64,0.00,OVC,,0.00,169.4,WeatherDisplay:10.37,2013-01-24 15:27:00,
2013-01-24 09:32:00,7.7,-2.0,30.70,East,88,0.9,3.5,64,0.00,OVC,,0.00,207.2,WeatherDisplay:10.37,2013-01-24 15:32:00,
2013-01-24 09:37:00,8.0,-2.0,30.70,East,80,0.3,2.3,63,0.00,OVC,,0.00,236.6,WeatherDisplay:10.37,2013-01-24 15:37:00,
2013-01-24 09:42:00,8.3,-1.4,30.69,NE,42,2.3,5.0,64,0.00,OVC,,0.00,198.8,WeatherDisplay:10.37,2013-01-24 15:42:00,
2013-01-24 09:48:00,8.3,-2.1,30.68,NE,48,2.3,3.5,62,0.00,OVC,,0.00,149.8,WeatherDisplay:10.37,2013-01-24 15:48:00,
2013-01-24 09:53:00,8.3,-2.1,30.68,NE,40,0.3,2.3,62,0.00,OVC,,0.00,152.6,WeatherDisplay:10.37,2013-01-24 15:53:00,
2013-01-24 09:58:00,8.4,-1.6,30.68,NNE,32,0.0,2.3,63,0.00,OVC,,0.00,165.2,WeatherDisplay:10.37,2013-01-24 15:58:00,
2013-01-24 10:03:00,8.5,-1.9,30.68,SE,138,2.5,4.6,62,0.00,OVC,,0.00,175.0,WeatherDisplay:10.37,2013-01-24 16:03:00,
2013-01-24 10:09:00,8.7,-2.0,30.68,NE,47,0.0,3.5,61,0.00,OVC,,0.00,182.0,WeatherDisplay:10.37,2013-01-24 16:09:00,
2013-01-24 10:14:00,8.9,-1.8,30.68,NE,35,0.2,4.6,61,0.00,OVC,,0.00,194.6,WeatherDisplay:10.37,2013-01-24 16:14:00,
2013-01-24 10:19:00,9.0,-1.7,30.68,ESE,119,0.7,4.0,61,0.00,OVC,,0.00,184.8,WeatherDisplay:10.37,2013-01-24 16:19:00,
2013-01-24 10:24:00,9.2,-1.5,30.68,ENE,71,1.0,3.5,61,0.00,OVC,,0.00,214.2,WeatherDisplay:10.37,2013-01-24 16:24:00,
2013-01-24 10:30:00,9.5,-1.3,30.69,SSE,155,2.2,5.0,61,0.00,OVC,,0.00,208.6,WeatherDisplay:10.37,2013-01-24 16:30:00,
2013-01-24 10:35:00,9.5,-1.6,30.68,South,189,2.7,4.0,60,0.00,OVC,,0.00,211.4,WeatherDisplay:10.37,2013-01-24 16:35:00,
2013-01-24 10:40:00,9.6,-1.5,30.68,ESE,102,0.1,3.5,60,0.00,OVC,,0.00,228.2,WeatherDisplay:10.37,2013-01-24 16:40:00,
2013-01-24 10:45:00,9.9,-1.2,30.68,NE,46,1.8,3.5,60,0.00,OVC,,0.00,204.4,WeatherDisplay:10.37,2013-01-24 16:45:00,
2013-01-24 10:51:00,10.0,-1.1,30.67,East,93,0.0,2.3,60,0.00,OVC,,0.00,233.8,WeatherDisplay:10.37,2013-01-24 16:51:00,
2013-01-24 10:56:00,10.2,-1.0,30.68,East,91,1.0,7.0,60,0.00,OVC,OVC,0.00,214.2,WeatherDisplay:10.37,2013-01-24 16:56:00,
2013-01-24 11:01:00,10.5,-1.0,30.68,ENE,59,1.1,3.5,59,0.00,OVC,,0.00,218.4,WeatherDisplay:10.37,2013-01-24 17:01:00,
2013-01-24 11:06:00,10.5,-1.4,30.67,East,83,2.1,5.8,58,0.00,OVC,,0.00,228.2,WeatherDisplay:10.37,2013-01-24 17:06:00,
2013-01-24 11:11:00,10.6,-0.9,30.67,NE,43,0.6,3.5,59,0.00,OVC,,0.00,249.2,WeatherDisplay:10.37,2013-01-24 17:11:00,
2013-01-24 11:17:00,10.8,-1.1,30.67,ESE,105,1.3,6.9,58,0.00,OVC,,0.00,253.4,WeatherDisplay:10.37,2013-01-24 17:17:00,
2013-01-24 11:22:00,11.0,-0.5,30.66,East,96,2.1,3.5,59,0.00,OVC,,0.00,285.6,WeatherDisplay:10.37,2013-01-24 17:22:00,
2013-01-24 11:27:00,11.3,-0.6,30.66,East,80,1.5,4.6,58,0.00,OVC,,0.00,308.0,WeatherDisplay:10.37,2013-01-24 17:27:00,
2013-01-24 11:32:00,11.4,-0.9,30.65,SE,126,0.5,6.9,57,0.00,OVC,,0.00,292.6,WeatherDisplay:10.37,2013-01-24 17:32:00,
2013-01-24 11:38:00,11.7,-0.6,30.65,East,97,0.9,3.5,57,0.00,OVC,,0.00,270.2,WeatherDisplay:10.37,2013-01-24 17:38:00,
2013-01-24 11:43:00,11.9,-0.4,30.65,ESE,115,2.1,5.0,57,0.00,OVC,,0.00,268.8,WeatherDisplay:10.37,2013-01-24 17:43:00,
2013-01-24 11:48:00,11.9,-0.4,30.64,ESE,116,0.8,3.5,57,0.00,OVC,,0.00,270.2,WeatherDisplay:10.37,2013-01-24 17:48:00,
2013-01-24 11:53:00,12.1,-0.2,30.64,ESE,110,1.1,4.6,57,0.00,OVC,,0.00,288.4,WeatherDisplay:10.37,2013-01-24 17:53:00,
2013-01-24 11:59:00,12.2,-0.1,30.64,NE,48,1.0,5.0,57,0.00,OVC,,0.00,298.2,WeatherDisplay:10.37,2013-01-24 17:59:00,
2013-01-24 12:04:00,12.3,-0.4,30.63,ENE,76,1.2,4.6,56,0.00,OVC,,0.00,340.2,WeatherDisplay:10.37,2013-01-24 18:04:00,
2013-01-24 12:09:00,12.7,0.3,30.62,East,96,0.8,5.0,57,0.00,OVC,,0.00,344.4,WeatherDisplay:10.37,2013-01-24 18:09:00,
2013-01-24 12:14:00,12.8,0.0,30.61,NNE,18,2.6,8.1,56,0.00,OVC,,0.00,344.4,WeatherDisplay:10.37,2013-01-24 18:14:00,
2013-01-24 12:20:00,13.1,0.7,30.61,North,10,0.2,1.1,57,0.00,OVC,,0.00,337.4,WeatherDisplay:10.37,2013-01-24 18:20:00,
2013-01-24 12:25:00,13.6,0.8,30.60,NNE,28,1.8,3.5,56,0.00,OVC,,0.00,366.8,WeatherDisplay:10.37,2013-01-24 18:25:00,
2013-01-24 12:30:00,13.7,0.5,30.59,ENE,59,0.9,6.9,55,0.00,OVC,,0.00,389.2,WeatherDisplay:10.37,2013-01-24 18:30:00,
2013-01-24 12:35:00,13.6,0.4,30.59,ENE,65,1.2,3.5,55,0.00,OVC,,0.00,403.2,WeatherDisplay:10.37,2013-01-24 18:35:00,
2013-01-24 12:41:00,14.0,0.8,30.58,NE,54,4.2,8.1,55,0.00,OVC,,0.00,408.8,WeatherDisplay:10.37,2013-01-24 18:41:00,
2013-01-24 12:46:00,13.8,0.2,30.58,East,99,1.0,10.0,54,0.00,OVC,OVC,0.00,422.8,WeatherDisplay:10.37,2013-01-24 18:46:00,
2013-01-24 12:51:00,14.3,1.1,30.57,East,93,1.3,5.0,55,0.00,OVC,,0.00,494.2,WeatherDisplay:10.37,2013-01-24 18:51:00,
2013-01-24 12:56:00,14.6,0.9,30.57,ESE,104,1.5,4.6,54,0.00,OVC,,0.00,406.0,WeatherDisplay:10.37,2013-01-24 18:56:00,
2013-01-24 13:01:00,15.0,0.5,30.56,NE,49,1.7,4.6,52,0.00,OVC,,0.00,359.8,WeatherDisplay:10.37,2013-01-24 19:01:00,
2013-01-24 13:06:00,15.0,0.9,30.56,East,80,1.3,3.5,53,0.00,OVC,,0.00,386.4,WeatherDisplay:10.37,2013-01-24 19:06:00,
2013-01-24 13:12:00,15.3,0.8,30.57,ENE,65,1.6,4.6,52,0.00,OVC,,0.00,364.0,WeatherDisplay:10.37,2013-01-24 19:12:00,
2013-01-24 13:17:00,15.6,1.5,30.57,ENE,73,0.8,3.5,53,0.00,OVC,,0.00,389.2,WeatherDisplay:10.37,2013-01-24 19:17:00,
2013-01-24 13:22:00,15.8,1.3,30.56,East,100,0.6,3.0,52,0.00,OVC,,0.00,435.4,WeatherDisplay:10.37,2013-01-24 19:22:00,
2013-01-24 13:28:00,15.8,0.0,30.55,East,96,2.5,6.9,49,0.00,OVC,,0.00,442.4,WeatherDisplay:10.37,2013-01-24 19:28:00,
2013-01-24 13:33:00,15.8,0.8,30.55,ESE,118,0.8,4.0,51,0.00,OVC,,0.00,415.8,WeatherDisplay:10.37,2013-01-24 19:33:00,
2013-01-24 13:38:00,15.9,0.9,30.55,ENE,75,1.9,4.6,51,0.00,OVC,,0.00,432.6,WeatherDisplay:10.37,2013-01-24 19:38:00,
2013-01-24 13:43:00,16.5,1.5,30.54,ENE,57,2.3,6.0,51,0.00,OVC,,0.00,431.2,WeatherDisplay:10.37,2013-01-24 19:43:00,
2013-01-24 13:49:00,16.5,1.1,30.53,NE,56,2.1,5.0,50,0.00,OVC,,0.00,379.4,WeatherDisplay:10.37,2013-01-24 19:49:00,
2013-01-24 13:54:00,16.4,1.0,30.53,ESE,117,0.7,3.5,50,0.00,OVC,,0.00,406.0,WeatherDisplay:10.37,2013-01-24 19:54:00,
2013-01-24 13:59:00,17.0,1.5,30.53,SE,126,0.7,3.5,50,0.00,OVC,,0.00,422.8,WeatherDisplay:10.37,2013-01-24 19:59:00,
2013-01-24 14:04:00,17.0,1.5,30.53,SE,143,1.5,3.5,50,0.00,OVC,,0.00,422.8,WeatherDisplay:10.37,2013-01-24 20:04:00,
2013-01-24 14:10:00,16.9,1.0,30.53,ESE,103,1.6,3.5,49,0.00,OVC,,0.00,379.4,WeatherDisplay:10.37,2013-01-24 20:10:00,
2013-01-24 14:15:00,16.8,0.9,30.53,ESE,105,0.0,0.0,49,0.00,OVC,,0.00,322.0,WeatherDisplay:10.37,2013-01-24 20:15:00,
2013-01-24 14:20:00,17.1,1.2,30.52,ESE,120,0.2,1.1,49,0.00,OVC,,0.00,299.6,WeatherDisplay:10.37,2013-01-24 20:20:00,
2013-01-24 14:25:00,17.5,1.6,30.51,SE,125,1.2,3.5,49,0.00,OVC,,0.00,357.0,WeatherDisplay:10.37,2013-01-24 20:25:00,
2013-01-24 14:31:00,17.6,1.2,30.51,ESE,104,2.7,5.8,48,0.00,OVC,,0.00,302.4,WeatherDisplay:10.37,2013-01-24 20:31:00,
2013-01-24 14:36:00,17.7,1.7,30.50,ESE,111,1.0,7.0,49,0.00,OVC,OVC,0.00,256.2,WeatherDisplay:10.37,2013-01-24 20:36:00,
2013-01-24 14:41:00,17.8,1.8,30.50,East,99,1.7,3.5,49,0.00,OVC,,0.00,239.4,WeatherDisplay:10.37,2013-01-24 20:41:00,
2013-01-24 14:46:00,18.0,2.0,30.50,NE,55,0.3,2.3,49,0.00,OVC,,0.00,236.6,WeatherDisplay:10.37,2013-01-24 20:46:00,
2013-01-24 14:51:00,18.2,1.8,30.50,SE,124,0.7,3.5,48,0.00,OVC,,0.00,228.2,WeatherDisplay:10.37,2013-01-24 20:51:00,
2013-01-24 14:56:00,18.3,1.9,30.51,North,360,0.0,1.1,48,0.00,OVC,,0.00,231.0,WeatherDisplay:10.37,2013-01-24 20:56:00,
2013-01-24 15:02:00,18.4,2.0,30.50,ESE,107,3.0,9.0,48,0.00,OVC,,0.00,211.4,WeatherDisplay:10.37,2013-01-24 21:02:00,
2013-01-24 15:07:00,18.4,1.5,30.49,ENE,65,4.4,10.4,47,0.00,OVC,,0.00,198.8,WeatherDisplay:10.37,2013-01-24 21:07:00,
2013-01-24 15:12:00,18.3,1.4,30.48,ESE,107,1.4,3.5,47,0.00,OVC,,0.00,184.8,WeatherDisplay:10.37,2013-01-24 21:12:00,
2013-01-24 15:17:00,18.3,0.9,30.49,ESE,117,2.0,2.3,46,0.00,OVC,,0.00,177.8,WeatherDisplay:10.37,2013-01-24 21:17:00,
2013-01-24 15:23:00,18.4,1.0,30.49,SE,134,4.0,7.0,46,0.00,OVC,,0.00,172.2,WeatherDisplay:10.37,2013-01-24 21:23:00,
2013-01-24 15:28:00,18.4,1.0,30.49,ESE,119,1.3,4.0,46,0.00,OVC,,0.00,162.4,WeatherDisplay:10.37,2013-01-24 21:28:00,
2013-01-24 15:33:00,18.5,1.1,30.48,East,86,0.0,1.1,46,0.00,OVC,,0.00,158.2,WeatherDisplay:10.37,2013-01-24 21:33:00,
2013-01-24 15:38:00,18.6,1.2,30.48,ESE,116,3.9,4.6,46,0.00,OVC,,0.00,142.8,WeatherDisplay:10.37,2013-01-24 21:38:00,
2013-01-24 15:44:00,18.5,1.1,30.47,SE,124,2.0,4.6,46,0.00,OVC,,0.00,123.2,WeatherDisplay:10.37,2013-01-24 21:44:00,
2013-01-24 15:49:00,18.6,1.2,30.47,East,101,0.0,1.1,46,0.00,OVC,,0.00,106.4,WeatherDisplay:10.37,2013-01-24 21:49:00,
2013-01-24 15:54:00,18.7,1.3,30.47,East,94,0.7,2.0,46,0.00,OVC,,0.00,100.8,WeatherDisplay:10.37,2013-01-24 21:54:00,
2013-01-24 16:00:00,18.7,1.3,30.47,East,84,3.6,8.1,46,0.00,OVC,,0.00,96.6,WeatherDisplay:10.37,2013-01-24 22:00:00,
2013-01-24 16:05:00,18.6,1.7,30.46,East,88,1.9,4.0,47,0.00,OVC,,0.00,91.0,WeatherDisplay:10.37,2013-01-24 22:05:00,
2013-01-24 16:10:00,18.7,1.8,30.46,SE,138,1.4,3.5,47,0.00,OVC,,0.00,86.8,WeatherDisplay:10.37,2013-01-24 22:10:00,
2013-01-24 16:15:00,18.8,1.9,30.46,NE,53,0.7,3.5,47,0.00,OVC,,0.00,78.4,WeatherDisplay:10.37,2013-01-24 22:15:00,
2013-01-24 16:21:00,18.8,1.4,30.46,SE,140,2.4,3.5,46,0.00,OVC,,0.00,71.4,WeatherDisplay:10.37,2013-01-24 22:21:00,
2013-01-24 16:26:00,18.7,1.3,30.46,East,87,1.0,7.0,46,0.00,OVC,OVC,0.00,58.8,WeatherDisplay:10.37,2013-01-24 22:26:00,
2013-01-24 16:31:00,18.7,1.3,30.45,ENE,74,0.3,5.0,46,0.00,OVC,,0.00,51.8,WeatherDisplay:10.37,2013-01-24 22:31:00,
2013-01-24 16:36:00,18.8,1.4,30.45,SE,127,2.7,3.5,46,0.00,OVC,,0.00,39.2,WeatherDisplay:10.37,2013-01-24 22:36:00,
2013-01-24 16:41:00,18.8,1.4,30.45,ENE,57,3.0,6.9,46,0.00,OVC,,0.00,32.2,WeatherDisplay:10.37,2013-01-24 22:41:00,
2013-01-24 16:46:00,18.8,1.4,30.45,ESE,117,1.0,5.0,46,0.00,OVC,,0.00,25.2,WeatherDisplay:10.37,2013-01-24 22:46:00,
2013-01-24 16:52:00,18.8,1.9,30.44,SSE,159,2.5,5.0,47,0.00,OVC,,0.00,22.4,WeatherDisplay:10.37,2013-01-24 22:52:00,
2013-01-24 16:57:00,18.9,2.0,30.44,ESE,104,1.4,3.5,47,0.00,OVC,,0.00,19.6,WeatherDisplay:10.37,2013-01-24 22:57:00,
2013-01-24 17:02:00,18.9,2.0,30.44,NE,47,0.0,2.3,47,0.00,OVC,,0.00,15.4,WeatherDisplay:10.37,2013-01-24 23:02:00,
2013-01-24 17:07:00,18.9,2.0,30.44,ENE,57,0.8,2.3,47,0.00,OVC,,0.00,12.6,WeatherDisplay:10.37,2013-01-24 23:07:00,
2013-01-24 17:13:00,18.9,1.5,30.44,East,82,2.5,6.9,46,0.00,OVC,,0.00,7.0,WeatherDisplay:10.37,2013-01-24 23:13:00,
2013-01-24 17:18:00,18.9,1.5,30.43,ESE,122,0.6,2.3,46,0.00,OVC,,0.00,0.0,WeatherDisplay:10.37,2013-01-24 23:18:00,
2013-01-24 17:23:00,18.9,1.5,30.43,ESE,111,1.5,8.1,46,0.00,OVC,,0.00,0.0,WeatherDisplay:10.37,2013-01-24 23:23:00,
2013-01-24 17:28:00,18.9,2.0,30.42,ENE,70,0.1,2.0,47,0.00,OVC,,0.00,0.0,WeatherDisplay:10.37,2013-01-24 23:28:00,
2013-01-24 17:34:00,18.9,2.0,30.42,SE,128,1.4,4.6,47,0.00,OVC,,0.00,0.0,WeatherDisplay:10.37,2013-01-24 23:34:00,
2013-01-24 17:39:00,18.9,2.0,30.41,ESE,111,0.2,1.1,47,0.00,OVC,,0.00,0.0,WeatherDisplay:10.37,2013-01-24 23:39:00,
2013-01-24 17:44:00,18.9,2.0,30.41,SE,130,0.8,3.5,47,0.00,OVC,,0.00,0.0,WeatherDisplay:10.37,2013-01-24 23:44:00,
2013-01-24 17:49:00,18.9,2.4,30.41,East,86,1.4,3.5,48,0.00,OVC,,0.00,0.0,WeatherDisplay:10.37,2013-01-24 23:49:00,
2013-01-24 17:55:00,18.9,2.4,30.40,ESE,103,1.9,3.5,48,0.00,OVC,,0.00,0.0,WeatherDisplay:10.37,2013-01-24 23:55:00,
2013-01-24 18:00:00,18.9,2.0,30.41,East,82,1.1,8.1,47,0.00,OVC,,0.00,0.0,WeatherDisplay:10.37,2013-01-25 00:00:00,
2013-01-24 18:05:00,18.9,2.4,30.41,ESE,115,4.8,6.9,48,0.00,OVC,,0.00,0.0,WeatherDisplay:10.37,2013-01-25 00:05:00,
2013-01-24 18:10:00,19.0,2.1,30.41,ESE,123,0.4,3.5,47,0.00,OVC,,0.00,0.0,WeatherDisplay:10.37,2013-01-25 00:10:00,
2013-01-24 18:16:00,19.0,2.1,30.41,ESE,106,2.0,8.0,47,0.00,OVC,OVC,0.00,0.0,WeatherDisplay:10.37,2013-01-25 00:16:00,
2013-01-24 18:21:00,19.1,2.1,30.42,ESE,110,0.7,6.9,47,0.00,OVC,,0.00,0.0,WeatherDisplay:10.37,2013-01-25 00:21:00,
2013-01-24 18:26:00,19.1,2.1,30.41,ESE,106,1.0,7.0,47,0.00,OVC,OVC,0.00,0.0,WeatherDisplay:10.37,2013-01-25 00:26:00,
2013-01-24 18:31:00,19.2,2.2,30.41,ESE,117,2.2,4.0,47,0.00,OVC,,0.00,0.0,WeatherDisplay:10.37,2013-01-25 00:31:00,
2013-01-24 18:36:00,19.2,2.7,30.40,SSE,149,3.3,9.0,48,0.00,OVC,,0.00,0.0,WeatherDisplay:10.37,2013-01-25 00:36:00,
2013-01-24 18:41:00,19.2,2.2,30.41,SE,130,0.4,3.5,47,0.00,OVC,,0.00,0.0,WeatherDisplay:10.37,2013-01-25 00:41:00,
2013-01-24 18:47:00,19.2,2.2,30.40,East,99,1.1,2.3,47,0.00,OVC,,0.00,0.0,WeatherDisplay:10.37,2013-01-25 00:47:00,
2013-01-24 18:52:00,19.3,2.3,30.40,East,93,0.4,2.3,47,0.00,OVC,,0.00,0.0,WeatherDisplay:10.37,2013-01-25 00:52:00,
2013-01-24 18:57:00,19.3,2.8,30.39,ESE,105,0.3,2.3,48,0.00,OVC,,0.00,0.0,WeatherDisplay:10.37,2013-01-25 00:57:00,
2013-01-24 19:02:00,19.4,2.9,30.39,SE,133,0.4,3.5,48,0.00,OVC,,0.00,0.0,WeatherDisplay:10.37,2013-01-25 01:02:00,
2013-01-24 19:08:00,19.4,2.4,30.37,SE,130,3.1,4.0,47,0.00,OVC,,0.00,0.0,WeatherDisplay:10.37,2013-01-25 01:08:00,
2013-01-24 19:13:00,19.4,2.9,30.37,East,91,1.3,4.6,48,0.00,OVC,,0.00,0.0,WeatherDisplay:10.37,2013-01-25 01:13:00,
2013-01-24 19:18:00,19.4,2.9,30.37,SSE,152,2.6,5.8,48,0.00,OVC,,0.00,0.0,WeatherDisplay:10.37,2013-01-25 01:18:00,
2013-01-24 19:23:00,19.5,3.0,30.37,SSE,162,2.1,5.0,48,0.00,OVC,,0.00,0.0,WeatherDisplay:10.37,2013-01-25 01:23:00,
2013-01-24 19:29:00,19.5,3.0,30.37,ESE,119,3.1,3.5,48,0.00,OVC,,0.00,0.0,WeatherDisplay:10.37,2013-01-25 01:29:00,
2013-01-24 19:34:00,19.5,3.4,30.37,ESE,118,1.5,5.0,49,0.00,OVC,,0.00,0.0,WeatherDisplay:10.37,2013-01-25 01:34:00,
2013-01-24 19:39:00,19.6,3.1,30.37,ESE,106,1.5,4.6,48,0.00,OVC,,0.00,0.0,WeatherDisplay:10.37,2013-01-25 01:39:00,
2013-01-24 19:44:00,19.7,3.2,30.36,SE,128,0.7,5.8,48,0.00,OVC,,0.00,0.0,WeatherDisplay:10.37,2013-01-25 01:44:00,
2013-01-24 19:50:00,19.7,3.6,30.37,ESE,123,0.3,3.5,49,0.00,OVC,,0.00,0.0,WeatherDisplay:10.37,2013-01-25 01:50:00,
2013-01-24 19:55:00,19.8,3.7,30.36,ESE,113,1.1,3.5,49,0.00,OVC,,0.00,0.0,WeatherDisplay:10.37,2013-01-25 01:55:00,
2013-01-24 20:00:00,19.8,3.7,30.37,SE,125,1.6,3.5,49,0.00,OVC,,0.00,0.0,WeatherDisplay:10.37,2013-01-25 02:00:00,
2013-01-24 20:05:00,19.9,4.2,30.37,SE,125,0.3,2.0,50,0.00,OVC,,0.00,0.0,WeatherDisplay:10.37,2013-01-25 02:05:00,
2013-01-24 20:11:00,20.0,3.9,30.38,East,88,0.4,3.5,49,0.00,OVC,,0.00,0.0,WeatherDisplay:10.37,2013-01-25 02:11:00,
2013-01-24 20:16:00,20.0,3.9,30.37,ESE,115,1.0,7.0,49,0.00,OVC,OVC,0.00,0.0,WeatherDisplay:10.37,2013-01-25 02:16:00,
2013-01-24 20:21:00,20.1,4.4,30.38,SE,133,0.8,3.5,50,0.00,OVC,,0.00,0.0,WeatherDisplay:10.37,2013-01-25 02:21:00,
2013-01-24 20:26:00,20.2,4.1,30.38,SE,133,0.8,5.0,49,0.00,OVC,,0.00,0.0,WeatherDisplay:10.37,2013-01-25 02:26:00,
2013-01-24 20:31:00,20.2,4.5,30.37,SE,128,2.4,8.1,50,0.00,OVC,,0.00,0.0,WeatherDisplay:10.37,2013-01-25 02:31:00,
2013-01-24 20:37:00,20.2,4.5,30.38,ESE,117,2.2,3.5,50,0.00,OVC,,0.00,0.0,WeatherDisplay:10.37,2013-01-25 02:37:00,
2013-01-24 20:42:00,20.2,4.5,30.38,SE,125,2.4,6.0,50,0.00,OVC,,0.00,0.0,WeatherDisplay:10.37,2013-01-25 02:42:00,
2013-01-24 20:47:00,20.3,5.5,30.37,SE,146,1.9,5.0,52,0.00,OVC,,0.00,0.0,WeatherDisplay:10.37,2013-01-25 02:47:00,
2013-01-24 20:52:00,20.3,5.0,30.36,ESE,118,1.0,4.6,51,0.00,OVC,,0.00,0.0,WeatherDisplay:10.37,2013-01-25 02:52:00,
2013-01-24 20:58:00,20.3,5.0,30.38,ESE,109,1.3,6.9,51,0.00,OVC,,0.00,0.0,WeatherDisplay:10.37,2013-01-25 02:58:00,
2013-01-24 21:03:00,20.3,5.5,30.37,ESE,117,1.5,3.0,52,0.00,OVC,,0.00,0.0,WeatherDisplay:10.37,2013-01-25 03:03:00,
2013-01-24 21:08:00,20.4,5.5,30.36,ESE,123,1.9,3.5,52,0.00,OVC,,0.00,0.0,WeatherDisplay:10.37,2013-01-25 03:08:00,
2013-01-24 21:13:00,20.4,5.5,30.37,ESE,104,1.0,2.0,52,0.00,OVC,,0.00,0.0,WeatherDisplay:10.37,2013-01-25 03:13:00,
2013-01-24 21:19:00,20.5,6.1,30.35,ESE,120,0.6,3.5,53,0.00,OVC,,0.00,0.0,WeatherDisplay:10.37,2013-01-25 03:19:00,
2013-01-24 21:24:00,20.5,6.1,30.36,SE,142,0.6,3.5,53,0.00,OVC,,0.00,0.0,WeatherDisplay:10.37,2013-01-25 03:24:00,
2013-01-24 21:29:00,20.6,6.2,30.36,ESE,117,2.7,4.6,53,0.00,OVC,,0.00,0.0,WeatherDisplay:10.37,2013-01-25 03:29:00,
2013-01-24 21:34:00,20.6,6.2,30.36,ESE,118,0.1,1.1,53,0.00,OVC,,0.00,0.0,WeatherDisplay:10.37,2013-01-25 03:34:00,
2013-01-24 21:40:00,20.6,6.2,30.36,ENE,71,0.3,3.5,53,0.00,OVC,,0.00,0.0,WeatherDisplay:10.37,2013-01-25 03:40:00,
2013-01-24 21:45:00,20.6,6.2,30.36,ESE,120,2.8,4.6,53,0.00,OVC,,0.00,0.0,WeatherDisplay:10.37,2013-01-25 03:45:00,
2013-01-24 21:50:00,20.6,6.6,30.38,ESE,113,0.8,3.5,54,0.00,OVC,,0.00,0.0,WeatherDisplay:10.37,2013-01-25 03:50:00,
2013-01-24 21:55:00,20.7,6.7,30.36,ESE,115,0.7,3.5,54,0.00,OVC,,0.00,0.0,WeatherDisplay:10.37,2013-01-25 03:55:00,
2013-01-24 22:01:00,20.7,6.7,30.36,ESE,109,0.7,4.6,54,0.00,OVC,,0.00,0.0,WeatherDisplay:10.37,2013-01-25 04:01:00,
2013-01-24 22:06:00,20.8,7.2,30.34,SE,128,1.0,5.0,55,0.00,OVC,OVC,0.00,0.0,WeatherDisplay:10.37,2013-01-25 04:06:00,
2013-01-24 22:11:00,20.8,7.2,30.34,ESE,121,2.3,6.9,55,0.00,OVC,,0.00,0.0,WeatherDisplay:10.37,2013-01-25 04:11:00,
2013-01-24 22:16:00,20.8,7.2,30.35,ESE,109,1.9,4.6,55,0.00,OVC,,0.00,0.0,WeatherDisplay:10.37,2013-01-25 04:16:00,
2013-01-24 22:21:00,20.9,7.2,30.35,SE,142,2.8,6.9,55,0.00,OVC,,0.00,0.0,WeatherDisplay:10.37,2013-01-25 04:21:00,
2013-01-24 22:26:00,21.0,7.7,30.35,SSE,166,1.6,6.0,56,0.00,OVC,,0.00,0.0,WeatherDisplay:10.37,2013-01-25 04:26:00,
2013-01-24 22:32:00,21.1,7.4,30.34,ESE,123,0.0,0.0,55,0.00,OVC,,0.00,0.0,WeatherDisplay:10.37,2013-01-25 04:32:00,
2013-01-24 22:37:00,21.1,7.8,30.34,SE,124,0.4,2.3,56,0.00,OVC,,0.00,0.0,WeatherDisplay:10.37,2013-01-25 04:37:00,
2013-01-24 22:42:00,21.2,7.9,30.34,SSE,148,0.2,3.5,56,0.00,OVC,,0.00,0.0,WeatherDisplay:10.37,2013-01-25 04:42:00,
2013-01-24 22:48:00,21.2,7.9,30.35,South,180,1.9,4.0,56,0.00,OVC,,0.00,0.0,WeatherDisplay:10.37,2013-01-25 04:48:00,
2013-01-24 22:53:00,21.3,8.0,30.34,SSW,199,2.5,9.2,56,0.00,OVC,,0.00,0.0,WeatherDisplay:10.37,2013-01-25 04:53:00,
2013-01-24 22:58:00,21.3,8.0,30.35,ESE,120,1.1,4.0,56,0.00,OVC,,0.00,0.0,WeatherDisplay:10.37,2013-01-25 04:58:00,
2013-01-24 23:00:00,21.4,8.5,30.35,SSE,156,1.1,3.5,57,0.00,OVC,,0.00,0.0,WeatherDisplay:10.37,2013-01-25 05:00:00,
2013-01-24 23:01:00,21.4,8.1,30.35,SE,144,0.0,3.5,56,0.00,OVC,,0.00,0.0,WeatherDisplay:10.37,2013-01-25 05:01:00,
2013-01-24 23:03:00,21.4,8.1,30.35,SSE,150,1.9,3.5,56,0.00,OVC,,0.00,0.0,WeatherDisplay:10.37,2013-01-25 05:03:00,
2013-01-24 23:04:00,21.4,8.1,30.35,SE,144,0.2,3.5,56,0.00,OVC,,0.00,0.0,WeatherDisplay:10.37,2013-01-25 05:04:00,
2013-01-24 23:09:00,21.4,8.1,30.34,SSW,206,0.3,2.0,56,0.00,OVC,,0.00,0.0,WeatherDisplay:10.37,2013-01-25 05:09:00,
2013-01-24 23:14:00,21.5,8.2,30.34,SSE,148,0.5,3.5,56,0.00,OVC,,0.00,0.0,WeatherDisplay:10.37,2013-01-25 05:14:00,
2013-01-24 23:20:00,21.5,8.2,30.33,SSW,213,1.7,4.6,56,0.00,OVC,,0.00,0.0,WeatherDisplay:10.37,2013-01-25 05:20:00,
2013-01-24 23:25:00,21.5,8.6,30.34,SSE,167,0.0,0.0,57,0.00,OVC,,0.00,0.0,WeatherDisplay:10.37,2013-01-25 05:25:00,
2013-01-24 23:30:00,21.5,8.6,30.34,South,181,0.8,4.0,57,0.00,OVC,,0.00,0.0,WeatherDisplay:10.37,2013-01-25 05:30:00,
2013-01-24 23:35:00,21.6,8.7,30.34,SE,146,0.0,3.5,57,0.00,OVC,,0.00,0.0,WeatherDisplay:10.37,2013-01-25 05:35:00,
2013-01-24 23:41:00,21.6,8.7,30.34,SSE,159,0.1,4.0,57,0.00,OVC,,0.00,0.0,WeatherDisplay:10.37,2013-01-25 05:41:00,
2013-01-24 23:46:00,21.6,8.7,30.33,South,173,0.3,2.3,57,0.00,OVC,,0.00,0.0,WeatherDisplay:10.37,2013-01-25 05:46:00,
2013-01-24 23:51:00,21.6,8.7,30.32,SSE,162,1.3,3.5,57,0.00,OVC,,0.00,0.0,WeatherDisplay:10.37,2013-01-25 05:51:00,
2013-01-24 23:57:00,21.7,8.8,30.31,SSW,196,0.5,2.3,57,0.00,OVC,,0.00,0.0,WeatherDisplay:10.37,2013-01-25 05:57:00,